Time,TemperatureF,DewpointF,PressureIn,WindDirection,WindDirectionDegrees,WindSpeedMPH,WindSpeedGustMPH,Humidity,HourlyPrecipIn,Conditions,Clouds,dailyrainin,SoftwareType,DateUTC
2013-10-04 00:10:00,68.1,67.0,30.02,ENE,65,0.0,1.0,96,0.00,,,0.00,weatherlink.com 1.10,2013-10-04 05:10:00,
2013-10-04 00:39:00,67.8,67.0,30.01,ENE,63,0.0,0.0,96,0.00,,,0.00,weatherlink.com 1.10,2013-10-04 05:39:00,
2013-10-04 00:54:00,67.8,67.0,30.02,ENE,64,0.0,0.0,96,0.00,,,0.00,weatherlink.com 1.10,2013-10-04 05:54:00,
2013-10-04 01:09:00,67.5,66.0,30.02,ENE,64,0.0,0.0,96,0.00,,,0.00,weatherlink.com 1.10,2013-10-04 06:09:00,
2013-10-04 01:24:00,67.5,67.0,30.02,ENE,64,0.0,0.0,97,0.00,,,0.00,weatherlink.com 1.10,2013-10-04 06:24:00,
2013-10-04 01:39:00,67.3,67.0,30.01,ENE,63,0.0,0.0,97,0.00,,,0.00,weatherlink.com 1.10,2013-10-04 06:39:00,
2013-10-04 01:54:00,67.3,67.0,30.01,ENE,64,0.0,0.0,97,0.00,,,0.00,weatherlink.com 1.10,2013-10-04 06:54:00,
2013-10-04 02:09:00,67.2,66.0,30.01,ENE,64,0.0,0.0,97,0.00,,,0.00,weatherlink.com 1.10,2013-10-04 07:09:00,
2013-10-04 02:24:00,67.1,66.0,30.01,ENE,63,0.0,0.0,97,0.00,,,0.00,weatherlink.com 1.10,2013-10-04 07:24:00,
2013-10-04 02:40:00,67.0,66.0,30.00,North,8,0.0,1.0,97,0.00,,,0.00,weatherlink.com 1.10,2013-10-04 07:40:00,
2013-10-04 02:55:00,66.9,66.0,30.00,North,8,0.0,0.0,97,0.00,,,0.00,weatherlink.com 1.10,2013-10-04 07:55:00,
2013-10-04 03:10:00,67.0,66.0,30.00,North,8,0.0,0.0,97,0.00,,,0.00,weatherlink.com 1.10,2013-10-04 08:10:00,
2013-10-04 03:25:00,67.1,66.0,30.00,North,9,0.0,0.0,97,0.00,,,0.00,weatherlink.com 1.10,2013-10-04 08:25:00,
2013-10-04 03:40:00,67.3,67.0,30.00,North,9,0.0,0.0,97,0.00,,,0.00,weatherlink.com 1.10,2013-10-04 08:40:00,
2013-10-04 03:55:00,67.7,67.0,30.00,North,9,0.0,0.0,97,0.00,,,0.00,weatherlink.com 1.10,2013-10-04 08:55:00,
2013-10-04 04:10:00,68.1,68.0,30.00,ENE,63,0.0,1.0,98,0.00,,,0.00,weatherlink.com 1.10,2013-10-04 09:10:00,
2013-10-04 04:25:00,67.5,67.0,30.01,ENE,64,0.0,0.0,97,0.00,,,0.00,weatherlink.com 1.10,2013-10-04 09:25:00,
2013-10-04 04:40:00,67.1,66.0,30.01,ENE,63,0.0,0.0,97,0.00,,,0.00,weatherlink.com 1.10,2013-10-04 09:40:00,
2013-10-04 04:55:00,67.6,67.0,30.02,NE,44,0.0,1.0,97,0.00,,,0.00,weatherlink.com 1.10,2013-10-04 09:55:00,
2013-10-04 05:10:00,67.5,67.0,30.02,SE,136,0.0,1.0,97,0.00,,,0.00,weatherlink.com 1.10,2013-10-04 10:10:00,
2013-10-04 05:25:00,67.8,67.0,30.02,NNE,13,0.0,2.0,97,0.00,,,0.00,weatherlink.com 1.10,2013-10-04 10:25:00,
2013-10-04 05:40:00,67.9,67.0,30.03,North,357,0.0,2.0,97,0.00,,,0.00,weatherlink.com 1.10,2013-10-04 10:40:00,
2013-10-04 05:55:00,67.4,66.0,30.03,North,356,0.0,0.0,96,0.00,,,0.00,weatherlink.com 1.10,2013-10-04 10:55:00,
2013-10-04 06:10:00,67.3,67.0,30.03,North,6,0.0,1.0,97,0.00,,,0.00,weatherlink.com 1.10,2013-10-04 11:10:00,
2013-10-04 06:25:00,67.6,67.0,30.04,ENE,73,0.0,1.0,97,0.00,,,0.00,weatherlink.com 1.10,2013-10-04 11:25:00,
2013-10-04 06:40:00,67.7,67.0,30.05,NE,47,0.0,1.0,97,0.00,,,0.00,weatherlink.com 1.10,2013-10-04 11:40:00,
2013-10-04 06:55:00,67.5,66.0,30.05,NNE,12,0.0,0.0,96,0.00,,,0.00,weatherlink.com 1.10,2013-10-04 11:55:00,
2013-10-04 07:10:00,67.4,67.0,30.06,NNE,18,0.0,0.0,97,0.00,,,0.00,weatherlink.com 1.10,2013-10-04 12:10:00,
2013-10-04 07:25:00,67.5,67.0,30.06,NNE,16,0.0,0.0,97,0.00,,,0.00,weatherlink.com 1.10,2013-10-04 12:25:00,
2013-10-04 07:40:00,68.9,68.0,30.07,NW,311,0.0,1.0,97,0.00,,,0.00,weatherlink.com 1.10,2013-10-04 12:40:00,
2013-10-04 07:55:00,70.8,69.0,30.07,NNE,25,0.0,1.0,94,0.00,,,0.00,weatherlink.com 1.10,2013-10-04 12:55:00,
2013-10-04 08:10:00,72.6,70.0,30.07,ENE,60,0.0,5.0,91,0.00,,,0.00,weatherlink.com 1.10,2013-10-04 13:10:00,
2013-10-04 08:25:00,74.3,71.0,30.07,NNW,330,0.0,4.0,89,0.00,,,0.00,weatherlink.com 1.10,2013-10-04 13:25:00,
2013-10-04 08:56:00,76.5,72.0,30.07,East,98,3.0,5.0,86,0.00,,,0.00,weatherlink.com 1.10,2013-10-04 13:56:00,
2013-10-04 09:12:00,77.8,72.0,30.07,ENE,65,3.0,5.0,83,0.00,,,0.00,weatherlink.com 1.10,2013-10-04 14:12:00,
2013-10-04 09:26:00,78.7,73.0,30.07,ESE,104,6.0,7.0,82,0.00,,,0.00,weatherlink.com 1.10,2013-10-04 14:26:00,
2013-10-04 09:41:00,79.7,73.0,30.07,ESE,115,1.0,4.0,81,0.00,,,0.00,weatherlink.com 1.10,2013-10-04 14:41:00,
2013-10-04 10:11:00,81.4,74.0,30.07,SE,130,5.0,7.0,78,0.00,,,0.00,weatherlink.com 1.10,2013-10-04 15:11:00,
2013-10-04 10:28:00,82.2,73.0,30.08,East,86,3.0,7.0,73,0.00,,,0.00,weatherlink.com 1.10,2013-10-04 15:28:00,
2013-10-04 10:45:00,83.3,73.0,30.07,East,82,2.0,7.0,72,0.00,,,0.00,weatherlink.com 1.10,2013-10-04 15:45:00,
2013-10-04 11:04:00,83.9,73.0,30.07,NE,41,6.0,7.0,70,0.00,,,0.00,weatherlink.com 1.10,2013-10-04 16:04:00,
2013-10-04 11:11:00,84.5,75.0,30.07,East,101,3.0,7.0,72,0.00,,,0.00,weatherlink.com 1.10,2013-10-04 16:11:00,
2013-10-04 11:27:00,85.2,74.0,30.07,East,83,5.0,7.0,69,0.00,,,0.00,weatherlink.com 1.10,2013-10-04 16:27:00,
2013-10-04 12:11:00,86.5,73.0,30.05,South,179,4.0,7.0,65,0.00,,,0.00,weatherlink.com 1.10,2013-10-04 17:11:00,
2013-10-04 12:26:00,86.6,74.0,30.05,East,93,2.0,6.0,67,0.00,,,0.00,weatherlink.com 1.10,2013-10-04 17:26:00,
2013-10-04 13:11:00,87.4,72.0,30.02,ESE,103,5.0,9.0,60,0.00,,,0.00,weatherlink.com 1.10,2013-10-04 18:11:00,
2013-10-04 13:26:00,87.6,70.0,30.02,ESE,117,3.0,7.0,57,0.00,,,0.00,weatherlink.com 1.10,2013-10-04 18:26:00,
2013-10-04 13:47:00,88.3,73.0,30.01,ESE,103,1.0,8.0,60,0.00,,,0.00,weatherlink.com 1.10,2013-10-04 18:47:00,
2013-10-04 13:56:00,88.8,72.0,30.01,NNW,333,6.0,6.0,57,0.00,,,0.00,weatherlink.com 1.10,2013-10-04 18:56:00,
2013-10-04 14:12:00,89.1,71.0,30.00,East,79,6.0,7.0,56,0.00,,,0.00,weatherlink.com 1.10,2013-10-04 19:12:00,
2013-10-04 14:43:00,89.4,72.0,30.00,SW,222,0.0,6.0,56,0.00,,,0.00,weatherlink.com 1.10,2013-10-04 19:43:00,
2013-10-04 14:57:00,90.1,72.0,30.00,East,101,0.0,6.0,55,0.00,,,0.00,weatherlink.com 1.10,2013-10-04 19:57:00,
2013-10-04 15:12:00,89.1,71.0,29.99,ENE,77,1.0,8.0,55,0.00,,,0.00,weatherlink.com 1.10,2013-10-04 20:12:00,
2013-10-04 15:42:00,89.4,72.0,29.98,NW,306,1.0,5.0,56,0.00,,,0.00,weatherlink.com 1.10,2013-10-04 20:42:00,
2013-10-04 16:13:00,88.4,71.0,29.99,North,349,1.0,5.0,56,0.00,,,0.00,weatherlink.com 1.10,2013-10-04 21:13:00,
2013-10-04 16:27:00,89.2,71.0,29.99,SE,145,3.0,6.0,55,0.00,,,0.00,weatherlink.com 1.10,2013-10-04 21:27:00,
2013-10-04 16:42:00,87.5,73.0,29.99,East,82,0.0,2.0,62,0.00,,,0.00,weatherlink.com 1.10,2013-10-04 21:42:00,
2013-10-04 16:58:00,87.4,74.0,29.99,East,93,0.0,4.0,64,0.00,,,0.00,weatherlink.com 1.10,2013-10-04 21:58:00,
2013-10-04 17:43:00,85.2,74.0,30.00,East,95,0.0,3.0,69,0.00,,,0.00,weatherlink.com 1.10,2013-10-04 22:43:00,
2013-10-04 17:57:00,83.4,74.0,30.00,East,94,0.0,0.0,73,0.00,,,0.00,weatherlink.com 1.10,2013-10-04 22:57:00,
2013-10-04 18:12:00,81.1,73.0,30.00,East,94,0.0,0.0,77,0.00,,,0.00,weatherlink.com 1.10,2013-10-04 23:12:00,
2013-10-04 18:27:00,79.2,73.0,30.00,SE,127,0.0,1.0,81,0.00,,,0.00,weatherlink.com 1.10,2013-10-04 23:27:00,
2013-10-04 18:42:00,77.8,73.0,30.00,SE,127,0.0,0.0,84,0.00,,,0.00,weatherlink.com 1.10,2013-10-04 23:42:00,
2013-10-04 18:57:00,76.4,72.0,30.01,ESE,115,0.0,0.0,86,0.00,,,0.00,weatherlink.com 1.10,2013-10-04 23:57:00,
2013-10-04 19:12:00,75.5,72.0,30.01,ESE,114,0.0,0.0,88,0.00,,,0.00,weatherlink.com 1.10,2013-10-05 00:12:00,
2013-10-04 19:27:00,74.7,71.0,30.02,ESE,115,0.0,0.0,89,0.00,,,0.00,weatherlink.com 1.10,2013-10-05 00:27:00,
2013-10-04 19:42:00,74.1,71.0,30.02,East,91,0.0,0.0,91,0.00,,,0.00,weatherlink.com 1.10,2013-10-05 00:42:00,
2013-10-04 19:57:00,73.8,71.0,30.03,NNE,28,0.0,0.0,91,0.00,,,0.00,weatherlink.com 1.10,2013-10-05 00:57:00,
2013-10-04 20:12:00,74.1,72.0,30.03,East,84,0.0,1.0,92,0.00,,,0.00,weatherlink.com 1.10,2013-10-05 01:12:00,
2013-10-04 20:27:00,73.7,71.0,30.03,East,84,0.0,0.0,92,0.00,,,0.00,weatherlink.com 1.10,2013-10-05 01:27:00,
2013-10-04 20:42:00,73.3,71.0,30.03,East,88,0.0,0.0,92,0.00,,,0.00,weatherlink.com 1.10,2013-10-05 01:42:00,
2013-10-04 20:57:00,72.9,71.0,30.04,East,91,0.0,0.0,93,0.00,,,0.00,weatherlink.com 1.10,2013-10-05 01:57:00,
2013-10-04 21:12:00,72.9,71.0,30.04,SSE,156,0.0,0.0,93,0.00,,,0.00,weatherlink.com 1.10,2013-10-05 02:12:00,
2013-10-04 21:27:00,72.4,71.0,30.04,SSE,157,0.0,0.0,94,0.00,,,0.00,weatherlink.com 1.10,2013-10-05 02:27:00,
2013-10-04 21:42:00,72.4,71.0,30.04,SSE,157,0.0,0.0,95,0.00,,,0.00,weatherlink.com 1.10,2013-10-05 02:42:00,
2013-10-04 21:57:00,72.9,71.0,30.05,East,89,0.0,1.0,94,0.00,,,0.00,weatherlink.com 1.10,2013-10-05 02:57:00,
2013-10-04 22:12:00,72.4,71.0,30.05,East,89,0.0,0.0,94,0.00,,,0.00,weatherlink.com 1.10,2013-10-05 03:12:00,
2013-10-04 22:27:00,72.0,71.0,30.05,East,88,0.0,1.0,95,0.00,,,0.00,weatherlink.com 1.10,2013-10-05 03:27:00,
2013-10-04 22:42:00,71.7,70.0,30.05,East,88,0.0,0.0,95,0.00,,,0.00,weatherlink.com 1.10,2013-10-05 03:42:00,
2013-10-04 22:57:00,71.6,70.0,30.05,East,79,0.0,0.0,95,0.00,,,0.00,weatherlink.com 1.10,2013-10-05 03:57:00,
2013-10-04 23:12:00,71.2,70.0,30.05,East,79,0.0,0.0,95,0.00,,,0.00,weatherlink.com 1.10,2013-10-05 04:12:00,
2013-10-04 23:27:00,71.0,70.0,30.05,ENE,65,0.0,0.0,96,0.00,,,0.00,weatherlink.com 1.10,2013-10-05 04:27:00,
2013-10-04 23:42:00,70.7,70.0,30.04,ENE,65,0.0,0.0,96,0.00,,,0.00,weatherlink.com 1.10,2013-10-05 04:42:00,
2013-10-04 23:57:00,70.4,69.0,30.04,ENE,65,0.0,0.0,96,0.00,,,0.00,weatherlink.com 1.10,2013-10-05 04:57:00,